Regional Weather Roundup
Issued by NWS

Home | Current Version | Previous Version | Text Only | Print | Product List | Glossary Off
Versions: 1 2 3 4 5 6 7 8 9 10 11 12 13 14 15 16 17 18 19 20 21 22 23 24 25 26 27 28 29 30 31 32 33 34 35 36 37 38 39 40 41 42 43 44 45 46 47 48 49 50

000
ASUS43 KLOT 222304
RWRIL

ILLINOIS REGIONAL WEATHER ROUNDUP
NATIONAL WEATHER SERVICE CHICAGO/ROMEOVILLE IL
600 PM CDT SUN OCT 22 2017

NOTE: "FAIR" INDICATES FEW OR NO CLOUDS BELOW 12,000 FEET WITH NO
SIGNIFICANT WEATHER AND/OR OBSTRUCTIONS TO VISIBILITY.

* THESE STATIONS ARE NOT UNDER NWS QUALITY CONTROL. THEY ALSO MAY NOT
  REPORT WEATHER SUCH AS PRECIPITATION OR FOG.

ILZ001-002-007-009-015-016-024-230000-
NORTHWEST ILLINOIS

CITY           SKY/WX    TMP DP  RH WIND       PRES   REMARKS
MOLINE         CLOUDY    54  47  77 CALM      30.06S
STERLING*      LGT RAIN  52  50  93 W5          N/A
SAVANNA*       CLOUDY    52  49  89 CALM      30.07R
$$

ILZ003-004-008-010-011-017-018-230000-
NORTH CENTRAL ILLINOIS

CITY           SKY/WX    TMP DP  RH WIND       PRES   REMARKS
ROCKFORD       LGT RAIN  51  49  92 CALM      30.07R
FREEPORT*      DRIZZLE   50  49  96 W3        30.07S
ROCHELLE*      LGT RAIN  50  49  96 CALM      30.06S
DE KALB*       DRIZZLE   51  49  95 N5        30.06R
PERU*          DRIZZLE   51  48  90 N9        30.06F
$$

ILZ005-006-012>014-019>023-230000-
NORTHEAST ILLINOIS

CITY           SKY/WX    TMP DP  RH WIND       PRES   REMARKS
CHICAGO-OHARE  LGT RAIN  52  49  89 N9        30.03R FOG
CHICAGO-MIDWAY LGT RAIN  53  52  96 N7        30.03R FOG
AURORA         LGT RAIN  52  50  93 N7        30.05R
LANSING*       RAIN      52  52 100 N7        30.04R
JOLIET*        DRIZZLE   53  52  97 N6        30.05R
WAUKEGAN       LGT RAIN  51  50  96 N5        30.03R FOG
DUPAGE AIRPORT LGT RAIN  51  51 100 NE6       30.04R FOG
KANKAKEE*      CLOUDY    53  51  94 N10G17    30.04R
WHEELING       LGT RAIN  53  52  96 N6        30.06R
MORRIS*        DRIZZLE   52  50  93 N5        30.04S
NORTHERLY ISL    N/A     53  50  89 NW15        N/A
$$

LMZ740>746-230000-
SOUTHERN LAKE MICHIGAN

STATION/POSITION SKY/WX   TEMP    WIND        PRES    VSBY  WAVE
                          AIR SEA DIR/SP/G                  HT/PER
                          (F)     (DEG/KT/KT) (MB)    (MI)  (FT/S)
SOUTHERN BUOY              55 60  360/ 25/ 29 1015.0          5/ 5
WILMETTE HARBOR            53 57  350/ 16/ 19   N/A           5/ 5
HARRISON CRIB              53     350/ 21/ 22   N/A
BURNHAM HARBOR             53     320/ 13/ 21   N/A
CALUMET HARBOR             52     340/ 16/ 25 1016.2R
BURNS HARBOR               54     340/ 18/ 23 1016.9R
MICHIGAN CITY              55     330/ 21/ 24   N/A
MICHIGAN CITY 6N           56 58  340/ 17/ 25   N/A           4/ 2
ST. JOSEPH                 58 60   10/ 14/ 17 1015.8R         2/ 4
$$

ILZ025>027-034>036-040-047-049-050-058-095>099-230000-
WEST-CENTRAL ILLINOIS

CITY           SKY/WX    TMP DP  RH WIND       PRES   REMARKS
QUINCY         CLOUDY    53  50  89 N3        30.07F
MACOMB*        CLOUDY    52  50  93 N5        30.09F
JACKSONVILLE*  CLOUDY    52  50  92 N10       30.05F
PITTSFIELD*    LGT RAIN  53  51  94 NW6       30.07F
$$

ILZ028>032-037-038-041>044-048-051>054-059>061-230000-
CENTRAL ILLINOIS

CITY           SKY/WX    TMP DP  RH WIND       PRES   REMARKS
PONTIAC        CLOUDY    52  52  99 N12       30.05S
BLOOMINGTON    LGT RAIN  52  50  93 N16       30.03F
DECATUR        LGT RAIN  53  52  96 N10       30.02F
PEORIA         LGT RAIN  53  51  93 N6        30.05F
LACON*         DRIZZLE   52  50  93 N5        30.05S
LINCOLN*       LGT RAIN  54  53  97 N6        30.04R
SPRINGFIELD    CLOUDY    55  51  86 NW8       30.05R
TAYLORVILLE    DRIZZLE   52  51  97 N13       30.03S
$$

ILZ033-039-045-046-055>057-062-063-230000-
EAST-CENTRAL ILLINOIS

CITY           SKY/WX    TMP DP  RH WIND       PRES   REMARKS
CHAMPAIGN      LGT RAIN  54  51  90 N14G23    30.01R FOG
DANVILLE*      CLOUDY    56  56  99 NW9       29.97R
RANTOUL*       CLOUDY    55  53  94 N16G28    30.01S
MATTOON        LGT RAIN  53  53 100 N16       30.01R
PARIS*         RAIN      67  64  90 W10       29.98R
$$

ILZ079-100>102-230000-
SOUTHWEST ILLINOIS

CITY           SKY/WX    TMP DP  RH WIND       PRES   REMARKS
ALTON          CLOUDY    54  52  94 N9        30.03S
CAHOKIA*       LGT RAIN  57  49  74 N13       30.03S
SPARTA*        RAIN      54  53  97 N8        30.02S
$$

ILZ064>066-069>071-074>076-080>082-084>086-088>090-092>094-230000-
SOUTH-CENTRAL ILLINOIS

CITY           SKY/WX    TMP DP  RH WIND       PRES   REMARKS
CARBONDALE     LGT RAIN  56  56 100 NW12      29.99S
EFFINGHAM*     DRIZZLE   56  56 100 NW7       30.01S
MARION         RAIN      59  59 100 NW12      29.98S
MT. VERNON     RAIN      57  55  93 VRB5      29.99R FOG
CENTRALIA*     HVY RAIN  55  55  99 NW10      30.00R
SALEM*         HVY RAIN  57  55  92 N8        30.00R
METROPOLIS*    LGT RAIN  67  66  97 S3        29.95F
$$

ILZ067-068-072-073-078-083-087-091-230000-
SOUTHEAST ILLINOIS

CITY           SKY/WX    TMP DP  RH WIND       PRES   REMARKS
LAWRENCEVILLE  CLOUDY    74  60  61 S14       29.96S
FLORA*         RAIN      60  59  96 N14       29.96
FAIRFIELD*     RAIN      60  60  98 NW5       29.95R
HARRISBURG*    HVY RAIN  67  66  97 W8        29.96R
ROBINSON*      CLOUDY    73  60  65 SE12      29.96S
CARMI*         CLOUDY    73  62  68 SE9       29.93F
$$

ABBREVIATIONS USED IN REMARKS
   TC - TEMPERATURE IN CELSIUS
  WCI - WIND CHILL INDEX
   HX - HEAT INDEX
  VSB - VISIBILITY
$$





USA.gov is the U.S. government's official web portal to all federal, state and local government web resources and services.